This is the latest recevied weather packets stored in our database for station/object N0NB. If no packets are shown the sender has not sent any weather packets the latest 10 day(s).
| Time | Temp. | Humidity | Pressure | Rain* | Wind** | Luminosity | Snow |
|---|---|---|---|---|---|---|---|
| 1777915216 | 27.78° C | 25% | 1002 hPa | 0 mm | - | 834 W/m² | - |
| 1777914616 | 27.22° C | 27% | 1002 hPa | 0 mm | - | 824 W/m² | - |
| 1777914016 | 27.22° C | 29% | 1002.1 hPa | 0 mm | - | 807 W/m² | - |
| 1777913416 | 27.22° C | 28% | 1002.1 hPa | 0 mm | - | 794 W/m² | - |
| 1777912816 | 27.22° C | 28% | 1002.1 hPa | 0 mm | - | 777 W/m² | - |
| 1777912216 | 26.67° C | 29% | 1002.1 hPa | 0 mm | - | 758 W/m² | - |
| 1777911616 | 26.67° C | 32% | 1002.2 hPa | 0 mm | - | 740 W/m² | - |
| 1777911016 | 26.11° C | 33% | 1002.2 hPa | 0 mm | - | 718 W/m² | - |
| 1777910416 | 25.56° C | 37% | 1002.3 hPa | 0 mm | - | 695 W/m² | - |
| 1777909816 | 25° C | 38% | 1002.2 hPa | 0 mm | - | 672 W/m² | - |
| 1777909216 | 24.44° C | 42% | 1002.1 hPa | 0 mm | - | 651 W/m² | - |
| 1777908616 | 23.33° C | 45% | 1002.3 hPa | 0 mm | - | 624 W/m² | - |
| 1777908016 | 22.78° C | 48% | 1002.1 hPa | 0 mm | - | 598 W/m² | - |
| 1777907416 | 22.22° C | 50% | 1002.1 hPa | 0 mm | - | 574 W/m² | - |
| 1777906816 | 21.11° C | 50% | 1002 hPa | 0 mm | - | 546 W/m² | - |
| 1777906216 | 20.56° C | 55% | 1001.9 hPa | 0 mm | - | 517 W/m² | - |
| 1777905616 | 20° C | 54% | 1002 hPa | 0 mm | - | 488 W/m² | - |
| 1777905016 | 19.44° C | 57% | 1001.9 hPa | 0 mm | - | 461 W/m² | - |
| 1777904416 | 18.33° C | 58% | 1001.9 hPa | 0 mm | - | 408 W/m² | - |
| 1777903816 | 17.78° C | 60% | 1001.8 hPa | 0 mm | - | 339 W/m² | - |
| 1777903216 | 17.22° C | 62% | 1001.8 hPa | 0 mm | - | 298 W/m² | - |
| 1777902616 | 17.22° C | 63% | 1001.7 hPa | 0 mm | - | 281 W/m² | - |
| 1777902016 | 16.67° C | 64% | 1001.6 hPa | 0 mm | - | 267 W/m² | - |
| 1777901416 | 16.11° C | 63% | 1001.7 hPa | 0 mm | - | 238 W/m² | - |
| 1777900816 | 15.56° C | 66% | 1001.6 hPa | 0 mm | - | 167 W/m² | - |
* Rain latest hour (hover to see other rain measurements)
** Current wind speed in m/s (hover to see current wind gust speed)